Location: Unspecified
(0.0000°N, 0.0000°E)
Time: 21:06:32
(UTC+00:00)

DMSP 5D-2 F13 DEB - Pass Details

Date: 10 March 2026
Orbit: 780 x 797 km, 98.7° (Epoch: 11 April)

Event Time Altitude Azimuth Distance (km) Brightness Sun altitude
Rises 19:47:52 0° 187° (S) 3,265 ? -24.4°
Reaches altitude 10° 19:50:26 10° 197° (SSW) 2,336 ? -25.0°
Maximum altitude 19:54:52 30° 257° (WSW) 1,383 ? -26.1°
Drops below altitude 10° 19:59:19 10° 317° (NW) 2,336 ? -27.2°
Sets 20:01:54 0° 328° (NNW) 3,264 ? -27.9°
